Theta_e
313 313 313 313 314 315 316 316 317 318 318 318 318 319 318 317 312 313 310 315 320 322 322 319 317 317 317 316 315 315 314 313 312 312 312 312 312 312 313 312 311 310 311
314 316 316 317 317 318 318 318 318 318 317 318 320 321 317 315 311 308 309 312 318 319 317 316 316 316 315 315 314 314 313 312 311 311 310 311 311 310 310 310 309 309 310
317 317 317 317 318 318 318 318 317 317 315 315 318 319 317 314 308 306 306 305 306 313 313 313 313 313 313 313 313 311 311 310 310 309 310 309 309 309 309 308 308 308 308
319 317 317 318 319 319 318 318 316 315 313 312 314 316 316 311 306 304 303 303 301 301 306 310 310 310 311 312 311 310 310 309 308 308 309 309 308 308 308 308 307 307 307
319 318 317 318 319 318 317 317 315 314 311 312 313 312 310 308 305 303 303 301 298 296 297 305 305 307 308 309 310 309 308 307 307 307 307 308 308 307 307 306 306 306 306
319 318 317 318 318 317 315 314 314 313 312 312 311 308 303 300 300 300 301 299 295 293 293 293 293 296 305 307 307 308 307 306 305 305 305 306 306 306 306 306 306 305 305
319 317 317 317 317 316 316 315 314 312 313 314 308 304 299 298 297 297 296 294 291 290 290 290 290 290 292 302 305 305 305 305 304 304 304 304 304 304 305 305 305 305 305
319 318 317 316 316 315 315 314 313 311 313 314 310 305 298 297 296 296 293 293 289 289 289 289 288 288 289 290 296 302 303 303 303 303 303 303 303 304 304 304 304 304 304
320 319 318 317 316 316 315 313 312 313 311 314 313 308 301 298 295 291 291 292 289 288 288 288 288 287 287 288 291 294 299 300 301 301 301 301 302 302 303 303 303 303 303
320 320 320 319 318 317 315 314 314 314 313 312 311 310 306 304 298 292 291 290 290 288 287 287 287 287 286 287 291 294 297 297 298 298 299 300 300 301 302 302 302 302 302
320 321 320 319 318 317 317 315 312 314 316 316 311 306 302 299 298 295 292 289 289 289 287 286 286 286 286 286 287 290 296 296 296 296 296 297 298 299 300 300 301 301 301
319 320 319 320 319 318 317 317 316 315 316 318 313 308 304 301 298 294 291 286 289 288 288 287 287 286 286 286 289 292 295 296 296 295 295 295 296 296 298 299 299 299 300
318 319 318 318 319 318 318 317 316 316 318 318 316 313 311 309 301 295 292 286 287 288 286 286 287 287 288 287 287 292 293 295 295 294 294 294 295 295 295 296 297 297 298
319 318 318 319 319 318 317 317 317 317 319 318 317 315 311 308 299 295 292 290 286 286 285 285 286 286 287 287 287 292 288 293 294 293 293 294 294 294 294 295 295 295 296
319 316 318 318 319 318 318 318 317 318 316 316 315 313 309 309 300 296 292 290 299 290 284 285 284 286 286 287 287 288 286 289 293 293 293 292 292 293 293 294 294 294 294
318 314 316 317 318 318 319 319 319 317 315 314 313 311 306 304 299 297 293 291 290 290 286 285 285 286 287 288 288 287 286 289 291 292 292 292 291 291 292 292 293 293 292
317 318 317 318 318 318 319 318 317 316 310 312 308 306 307 302 299 296 293 291 290 289 286 284 286 286 286 285 286 287 286 286 285 289 290 291 292 290 291 291 291 290 290
320 320 319 318 318 318 318 315 314 311 309 308 308 302 302 295 295 293 291 290 289 289 287 284 284 284 285 285 285 285 285 286 285 287 289 290 292 289 289 289 289 288 288
318 315 316 316 316 314 312 310 311 308 305 304 303 299 300 295 291 290 289 288 288 288 287 284 283 284 284 284 283 283 283 283 284 287 289 290 289 288 289 288 287 287 287
309 308 307 306 305 304 304 303 302 301 299 298 297 296 295 292 291 288 288 287 286 285 285 284 284 283 282 283 282 281 280 280 281 283 285 285 286 286 288 287 285 286 286
298 299 299 298 299 299 299 298 297 296 294 294 292 292 291 290 290 290 288 286 286 285 284 284 283 282 282 281 281 281 281 280 280 281 280 280 280 279 280 283 282 286 286
293 291 293 292 292 295 295 295 295 294 292 291 290 289 288 286 289 290 290 289 288 285 284 284 284 283 283 282 282 280 280 278 278 279 279 278 280 279 279 278 283 286 285
288 290 290 290 290 289 292 294 293 290 290 289 288 287 286 286 287 287 290 290 289 290 289 287 284 284 282 283 282 279 279 279 279 279 276 275 277 277 278 281 284 287 284
287 288 287 288 288 287 290 292 291 289 288 288 287 286 286 285 286 286 287 286 286 287 288 287 285 284 283 284 285 283 280 279 278 278 278 272 277 275 276 277 283 286 283
285 285 285 285 285 285 289 291 289 286 286 286 286 286 286 285 287 288 285 285 285 285 288 289 288 288 288 288 285 281 276 273 271 275 278 273 274 273 272 272 277 285 282
283 282 284 282 281 281 288 291 289 285 284 284 284 285 284 286 288 289 285 285 283 284 281 284 286 287 288 286 288 283 281 276 272 269 277 276 273 273 270 273 274 273 275
Wind_Speed
3 2 2 2 2 2 2 2 2 2 2 2 2 4 4 4 5 3 2 10 9 7 11 10 8 9 10 10 10 11 12 12 13 14 14 13 16 17 20 18 19 19 21
5 5 4 4 4 4 3 3 2 2 2 2 2 4 6 4 5 5 3 5 13 12 10 8 8 8 8 9 10 10 11 11 12 12 12 13 15 16 15 17 18 18 22
6 5 4 3 4 3 3 1 1 1 2 2 1 4 5 6 5 5 4 4 6 12 8 8 7 6 6 7 8 8 10 10 10 10 10 12 14 13 15 16 17 17 20
6 5 4 4 4 3 4 3 3 2 1 1 2 3 4 4 6 5 4 4 4 4 6 7 6 6 5 6 6 7 8 8 8 9 10 10 12 14 14 14 16 18 19
6 6 4 4 5 4 3 3 2 1 1 1 3 5 5 4 3 5 5 5 5 4 3 7 7 7 4 4 5 6 7 7 7 8 9 10 10 11 12 14 15 17 18
7 5 4 4 4 3 3 2 3 2 1 3 5 6 5 4 2 2 4 3 4 4 4 4 3 5 3 3 3 4 5 5 5 6 6 8 10 10 13 13 15 16 17
7 6 4 5 4 5 5 5 3 4 2 3 4 4 3 3 4 3 4 3 4 4 4 3 2 2 3 7 4 2 2 3 4 4 5 7 7 9 10 12 14 15 17
7 7 6 5 6 4 5 5 4 3 3 6 3 3 2 2 2 3 2 3 5 3 4 4 4 3 1 1 3 1 1 2 3 3 4 6 7 9 10 12 14 15 17
8 8 8 7 7 6 7 6 6 7 5 5 5 4 2 5 2 2 5 4 5 4 4 5 5 4 4 1 1 3 1 1 3 3 4 5 7 9 11 12 14 16 18
10 10 10 10 9 7 7 7 6 6 4 5 1 4 1 3 4 2 3 5 6 7 6 4 5 5 5 4 5 5 4 2 1 2 3 5 7 9 11 12 14 15 17
12 12 11 10 10 7 9 8 6 8 7 6 4 3 1 1 0 3 4 4 3 6 6 6 6 5 6 5 4 4 5 3 2 0 2 4 6 9 11 12 13 16 17
7 10 10 11 10 9 10 9 9 9 10 9 6 5 6 5 6 4 4 5 5 4 7 7 7 6 5 4 6 8 7 7 5 2 1 2 4 6 9 11 13 15 17
7 10 10 10 9 10 10 9 9 10 11 10 12 10 10 11 5 5 4 3 4 2 3 4 6 6 5 4 4 8 8 7 6 4 3 3 4 6 8 10 12 14 16
9 7 9 11 12 10 10 9 9 10 11 11 15 13 9 10 6 4 6 6 2 3 3 3 3 4 4 5 6 10 4 9 8 6 5 6 5 6 7 9 11 13 15
8 8 9 11 12 11 12 11 10 13 10 11 12 12 10 9 6 7 4 5 9 5 7 4 4 6 5 5 7 6 7 9 10 9 9 7 5 6 7 9 11 11 14
9 8 9 11 11 12 13 13 12 12 12 10 10 10 8 6 5 5 5 3 4 2 1 2 4 3 7 5 7 6 6 10 11 9 11 9 5 6 7 8 10 11 13
8 11 12 12 13 13 13 12 13 12 12 13 8 10 13 6 5 2 2 3 2 4 2 1 1 4 6 7 6 4 4 4 4 8 11 10 9 6 6 8 8 10 10
11 13 12 12 12 12 11 12 13 9 11 11 10 7 9 4 5 5 4 1 4 2 3 4 0 2 2 5 5 6 4 4 3 7 11 9 9 6 7 7 7 9 9
8 7 8 11 11 9 8 8 8 6 7 7 6 6 7 6 4 5 6 7 3 2 2 2 4 1 0 2 2 1 3 3 3 8 11 9 7 7 8 7 6 7 9
4 3 2 2 2 2 0 2 4 4 4 4 4 5 6 7 7 8 7 6 5 6 3 2 3 2 2 2 2 3 3 2 2 2 6 6 6 7 7 7 7 6 9
5 5 5 5 4 2 1 3 3 4 3 3 1 1 1 3 7 9 6 6 8 4 3 3 4 3 3 3 6 3 3 2 3 3 2 3 3 3 4 7 7 8 8
5 4 6 4 5 3 5 3 3 2 3 3 3 3 5 7 10 12 12 15 13 9 7 5 5 7 8 4 3 3 3 3 3 3 4 3 3 3 4 4 9 10 6
3 4 4 3 3 3 4 5 5 2 2 3 4 4 4 4 6 6 10 12 12 13 9 9 9 11 5 8 6 5 4 3 4 3 4 3 3 4 4 6 12 12 7
4 3 4 5 4 3 5 6 3 3 2 3 4 5 6 7 7 8 9 8 8 9 10 8 9 6 5 7 8 6 6 3 2 2 0 2 2 3 1 3 13 12 7
2 3 2 2 1 2 2 3 5 4 4 3 4 5 5 5 9 12 6 5 6 7 8 11 10 9 9 12 10 5 4 3 3 3 6 3 3 2 3 3 5 13 8
3 3 2 1 1 2 5 2 5 2 3 1 1 2 5 6 14 17 9 8 6 7 5 4 6 8 10 8 15 9 6 6 3 3 5 6 3 3 3 2 2 1 1
Wind_Direction
184 179 220 224 251 292 278 269 256 264 287 280 143 146 126 83 79 74 45 55 14 70 80 77 75 71 67 65 63 65 65 63 63 61 57 54 54 48 46 40 37 32 33
183 189 196 214 226 209 219 226 240 268 312 309 268 136 116 115 95 91 64 52 55 59 69 73 65 70 75 76 72 71 69 63 61 61 61 57 58 47 49 41 28 25 33
199 193 203 213 236 229 240 213 259 317 334 344 93 121 125 119 105 89 71 59 58 62 71 77 67 61 67 75 78 74 72 65 64 64 60 55 54 50 42 34 34 25 34
192 193 200 208 204 193 190 194 196 234 248 230 136 119 122 112 109 102 91 76 68 63 57 77 62 50 59 73 80 78 74 69 67 61 56 56 51 43 40 34 27 24 23
195 195 203 215 201 197 199 199 196 165 224 47 81 76 60 72 89 113 107 99 96 93 75 88 51 15 47 80 92 92 85 75 67 61 50 53 48 49 34 30 27 24 19
203 202 211 215 197 193 210 206 192 184 138 122 85 71 63 72 64 81 120 115 116 110 109 105 48 352 36 41 59 84 89 88 81 69 59 51 44 35 34 28 24 18 15
200 195 204 204 197 196 202 205 165 184 173 147 119 96 83 118 135 154 143 163 157 152 145 129 111 36 355 10 347 60 86 97 85 66 44 47 38 32 28 24 19 14 12
202 202 197 205 197 196 202 195 184 178 196 187 140 123 191 203 209 177 159 180 188 171 167 158 153 161 192 318 299 67 31 79 82 62 36 29 30 20 18 15 13 10 9
207 203 200 199 201 197 207 204 188 188 203 206 218 154 152 231 140 201 215 199 188 192 191 179 182 186 190 190 353 331 252 1 43 36 33 18 11 10 8 9 8 6 5
208 209 208 205 208 205 209 210 197 200 175 210 199 210 1 138 187 242 227 211 198 202 197 196 184 193 189 196 215 230 200 176 97 25 19 13 6 1 358 3 2 3 1
212 211 211 211 213 209 217 206 192 205 209 217 190 153 138 45 279 167 225 217 218 208 199 189 191 193 194 190 202 235 214 196 186 269 355 355 358 354 351 355 356 358 357
216 219 214 215 217 216 215 214 216 210 214 221 204 186 176 180 197 181 203 209 208 205 198 198 194 196 190 187 201 207 212 204 205 206 293 321 326 344 347 345 350 354 352
215 219 212 217 218 219 220 215 214 221 223 223 218 214 221 221 171 174 160 182 211 180 181 214 206 194 187 179 200 203 219 219 206 223 262 289 305 324 335 336 342 347 346
221 208 203 215 219 217 215 213 222 226 228 229 232 227 221 225 196 184 172 145 206 218 192 222 192 193 180 177 191 201 221 221 218 218 242 263 284 305 318 328 331 340 340
218 201 203 208 218 217 219 217 226 232 221 227 234 230 222 232 215 202 189 177 212 214 214 207 170 188 182 178 192 182 189 219 221 223 237 250 279 296 302 319 324 334 335
210 198 203 210 216 219 221 221 231 234 232 231 233 233 238 241 238 219 192 190 104 9 168 99 206 182 178 181 199 191 199 211 220 217 243 246 277 313 303 308 318 328 328
203 208 208 211 218 222 224 225 231 229 219 236 228 228 241 228 234 234 13 88 93 121 265 106 170 170 172 170 180 190 203 212 229 228 243 245 247 293 292 298 306 322 322
214 216 215 218 225 229 229 221 228 224 225 238 245 231 241 185 202 146 127 59 115 156 164 171 6 87 142 201 176 178 200 217 206 247 254 242 250 276 278 290 300 313 313
223 212 214 221 227 224 220 224 237 232 226 237 229 216 243 196 192 148 133 145 150 91 74 152 140 308 109 135 125 243 200 229 234 246 271 244 241 269 261 274 289 293 303
327 326 346 24 43 12 331 258 247 243 235 233 212 207 195 184 179 163 146 161 141 138 160 118 85 155 164 208 149 181 217 197 221 227 249 238 257 260 242 255 279 268 289
35 33 45 30 28 18 243 233 231 233 236 250 239 139 151 153 153 164 151 151 143 167 136 177 141 162 192 194 207 180 188 162 231 203 234 234 223 230 228 245 250 247 274
52 49 46 33 6 352 344 309 283 260 230 201 207 165 139 146 165 167 163 170 176 169 158 170 202 211 208 199 177 179 154 169 241 200 187 257 169 229 218 228 236 240 265
87 76 58 42 2 2 343 303 262 245 232 223 195 174 158 178 156 171 184 183 187 185 190 206 209 207 185 194 159 178 183 176 212 217 128 231 181 231 208 225 235 227 239
82 67 49 22 5 13 342 326 289 173 195 219 208 194 178 170 182 169 174 181 192 204 208 211 221 211 190 177 186 178 175 183 4 257 125 215 164 246 205 241 240 219 225
117 134 160 144 168 252 278 254 161 166 182 198 194 186 189 177 187 187 167 193 219 231 226 217 221 222 208 189 170 136 168 130 239 247 195 146 229 227 185 232 226 219 211
157 148 125 43 323 319 323 252 162 122 140 151 242 227 211 180 181 188 186 197 218 224 182 206 211 220 221 216 204 205 162 186 160 285 196 172 181 164 307 212 217 200 169